DECAYED
Showing default

E-KAGAKU-1, 65942 (Decayed)

Orbit data source: Space-Track

E-KAGAKU-1, 65942 was a Japanese payload satellite in LEO that was delivered to the ISS. Payload-class satellites include a variety of spacecraft equipped with specific instruments for various scientific and technological missions. These include communications satellites like Starlink; space stations such as the ISS; scientific satellites like the Hubble; Earth observation satellites from companies like Planet Labs, Umbra, and HawkEye 360; GPS; miniature CubeSats for education and research; and military/defense satellites.

Not visible in the next 10 days
Identifier
65942, 1998-067XP
Orbit
Decayed
Country
Flag of JPJP / JPN
Related business
Manufacturer
EKAG
Mission
Decayed Amateur Technology
Bus & Motor
CUBESAT 1U, Unknown motor
Mass
1 kg wet, 1 kg dry
Launch date (UTC)
1998-11-20 (28 years ago)
Launch vehicle
FALCON 9
Launch site
Tyuratam Missile And Space Complex (TTMTR)
Object type
Payload
Rocket body
Debris
Shape & HBR
Box, 0.1 m
Radar Cross Section
0.015 m², Medium (>0.1 m² and < 1m²)

Expand to show TLE details & history
Last TLE update: 6 months ago

TLE from 6 months ago
0 E-KAGAKU-1
1 65942U 98067XP  26062.30429344  .04774432  12041-4  14537-2 0  9996
2 65942  51.6039  82.5602 0002915  47.4358 312.6908 16.26071015 22599
Epoch: 2026-03-03T07:18Z
TLE epoch observation values (Epoch: 2026-03-03T07:18:10.953Z)
Latitude
-0.00002°
Longitude
171.92927°
Altitude
202.581 km
Speed
7.787 km/s
True Right ascension
05h 30m 14s
True Declination
0° 00' 00"
Sunlit
Object was in daylight at epoch
Visualization orbit readout
Latitude
Unknown
Longitude
Unknown
Altitude
Unknown
Speed
Unknown
Apparent Right ascension
Unknown
Apparent Declination
Unknown
Sunlit
N/A
Visualization observer readout
Local Sidereal Time
14:40:08
Azimuth
Unknown
Elevation
Unknown
Doppler factor
Unknown
Orbital elements
Apogee altitude
205.569 km
Perigee altitude
201.731 km
Semi-major axis
6,581.787 km
Eccentricity
0.00029
Inclination
51.6039°
RAAN
82.5602°
Arg. of periapsis
47.4358°
True anomaly
312.66624°
Mean anomaly
312.6908°
Eccentric anomaly
312.67852°
Mean motion
4.06469 °/min
Orbital period
88.57 mins
BSTAR
0.0014537
Loading maneuver chart data...
Computing Atmospheric mass density...
Loading historical data...
Loading historical data...
Loading historical data...
Loading historical data...
Loading historical data...
Loading historical data...
Loading historical data...

Documentation

Showing up to 5 results
|